www.pogodaiklimat.ru
ПОГОДА на Сейшелах

Архив погоды на Сейшелах (Сейшелы)

Время
(UTC), дата
18 17.05
21 17.05
00 18.05
03 18.05
06 18.05
09 18.05
12 18.05
15 18.05
18 18.05
21 18.05
00 19.05
03 19.05
06 19.05
09 19.05
12 19.05
15 19.05
18 19.05
21 19.05
00 20.05
03 20.05
06 20.05
09 20.05
12 20.05
15 20.05
18 20.05
21 20.05
00 21.05
03 21.05
06 21.05
09 21.05
12 21.05
15 21.05
18 21.05
21 21.05
00 22.05
03 22.05
06 22.05
09 22.05
12 22.05
15 22.05
18 22.05
21 22.05
00 23.05
03 23.05
06 23.05
09 23.05
12 23.05
15 23.05
18 23.05
21 23.05
00 24.05
03 24.05
06 24.05
09 24.05
12 24.05
15 24.05
Ветер
(напр.,м/с)
Видим. Явления Облачность Т
(С)
Тd
(С)
f
(%)
Тe
(С)
Тes
(С)
Комфортность P
(гПа)
Po
(гПа)
Тmin
(С)
Tmax
(С)
R
(мм)
R24
(мм)
S
(см)
СЗ 6 {6} 20 км 8/1 570 м
[Cb calv Ac und]
+28.3 +25.2 83 +41 +41 очень душно 1010.5 1010.2 +30.8 10
СЗ 2 {6} 20 км 9/3 660 м
[Cu Sc Ac und]
+27.4 +25.1 87 +39 +39 очень душно 1010.0 1009.7
СЗ 3 {3} 20 км 8/4 750 м
[Cu Sc Ac trans Ci sp]
+27.2 +25.3 89 +39 +39 очень душно 1008.8 1008.5
Ю 3 {7} 30 км в посл. час ливневой дождь 8/4 570 м
[Cb cap Ac trans Ci ing]
+26.7 +25.0 90 +38 +38 очень душно 1010.5 1010.2
С 4 {7} 40 км {ливн. дождь} 4/3 660 м
[Cu med, cong Ci sp]
+29.9 +25.1 75 +43 +49 очень душно 1011.1 1010.8 +26.5 10
С 3 {4} 60 км 6/3 660 м
[Cu med, cong Cc]
+30.5 +24.9 72 +44 +54 очень душно 1009.2 1008.9
нст 1 {4} 50 км 8/6 660 м
[Cu med, cong Ci sp]
+30.3 +25.9 77 +45 +47 очень душно 1008.3 1008.0
Ю 2 {3} 60 км 5/4 700 м
[Cu med, cong Ci fib]
+28.8 +25.4 82 +42 +42 очень душно 1009.7 1009.4
Ю 2 {5} 20 км 4/4 700 м
[Cu med, cong]
+28.6 +25.3 82 +42 +42 очень душно 1011.2 1010.9 +31.2
нст 1 {7} 20 км 3/3 720 м
[Cu med, cong]
+27.4 +25.0 87 +39 +39 очень душно 1010.2 1009.9
нст 1 {2} 10 км 4/4 660 м
[Cu med, cong]
+27.5 +25.3 88 +40 +40 очень душно 1008.7 1008.4
штиль 0 {4} 20 км 8/5 720 м
[Cu Sc Ci sp]
+27.5 +25.6 89 +40 +41 очень душно 1009.7 1009.4
В 3 {6} 45 км 4/3 660 м
[Cu med, cong Ac trans]
+30.4 +26.0 77 +45 +52 очень душно 1010.9 1010.6 +26.9
ЮВ 5 {7} 50 км 3/3 700 м
[Cu med, cong]
+30.8 +26.0 76 +46 +53 очень душно 1008.5 1008.2
В 4 {8} 50 км 3/1 630 м
[Cu med, cong Ci fib]
+30.4 +25.1 73 +44 +47 очень душно 1007.3 1007.0
ЮВ 3 {6} 45 км 3/1 720 м
[Cu med, cong Ci fib]
+28.9 +25.0 80 +42 +42 очень душно 1009.3 1009.0
Ю 2 {6} 30 км 4/3 660 м
[Cu med, cong Ci fib]
+28.0 +24.9 83 +40 +40 очень душно 1011.1 1010.8 +31.5
нст 1 {9} 40 км 4/4 700 м
[Cu hum]
+27.7 +24.4 82 +39 +39 очень душно 1010.3 1010.0
Ю 2 {4} 30 км 4/3 720 м
[Cu med, cong Ci fib]
+28.0 +24.7 82 +40 +40 очень душно 1008.3 1008.0
ЮВ 3 {5} 45 км 4/3 660 м
[Cu hum Ci fib]
+28.7 +25.4 82 +42 +42 очень душно 1009.7 1009.4
ЮВ 4 {8} 40 км 5/5 660 м
[Cu Sc]
+30.9 +25.6 73 +45 +49 очень душно 1011.0 1010.7 +27.2
ЮВ 6 {9} 30 км 5/4 600 м
[Cb calv Ac cuf Ci ing]
+31.3 +25.3 71 +46 +50 очень душно 1009.3 1009.0
ЮВ 6 {10} 30 км 5/4 600 м
[Cb calv Ac cuf Ci ing]
+30.5 +25.4 74 +44 +46 очень душно 1008.2 1007.9
ЮВ 3 {9} 20 км 3/3 630 м
[Cb cap]
+29.0 +24.9 79 +42 +42 очень душно 1009.7 1009.4
ЮВ 3 {7} 30 км 1/1 660 м
[Cb calv]
+28.8 +25.4 82 +42 +42 очень душно 1011.8 1011.5 +31.9
Ю 2 {5} 30 км в посл. час ливневой дождь 4/1 630 м
[Cu med, cong Ci fib]
+27.9 +24.2 80 +39 +39 очень душно 1010.8 1010.5
ЮВ 2 {5} 30 км {ливн. дождь} 3/3 700 м
[Cu med, cong]
+28.2 +25.1 83 +41 +41 очень душно 1009.6 1009.3
Ю 3 {7} 45 км слаб. ливневой дождь 6/4 630 м
[Cb calv Ac trans]
+28.2 +25.1 83 +41 +41 очень душно 1011.0 1010.7
ЮВ 3 {7} 30 км {ливн. дождь} 4/4 500 м
[Cb calv]
+30.7 +25.0 72 +44 +51 очень душно 1011.7 1011.4 +27.4 1
СЗ 3 {8} 40 км 5/5 630 м
[Cu med, cong Ci fib]
+30.3 +23.9 69 +42 +50 очень душно 1010.7 1010.4
СЗ 3 {10} 40 км 8/4 700 м
[Cu Sc Ac und Ci sp]
+29.8 +23.9 71 +41 +43 очень душно 1009.2 1008.9
ЮВ 3 {10} 25 км 8/5 630 м
[Cu med, cong Ac trans Ci sp]
+29.0 +24.0 74 +40 +40 очень душно 1010.2 1009.9
нст 4 {11} 50 км {ливн. дождь} 8/5 600 м
[Cu Sc Ac und]
+28.6 +24.3 78 +40 +40 очень душно 1010.9 1010.6 +31.7 0.7
нст 2 {10} 20 км в посл. час ливневой дождь 9/5 540 м
[Cb cap Ac cuf]
+28.5 +23.7 75 +39 +39 очень душно 1010.7 1010.4
Ю 3 {7} 20 км {ливн. дождь} 6/4 570 м
[Cb cap Ac trans]
+28.0 +23.9 78 +39 +39 очень душно 1009.7 1009.4
ЮВ 2 {6} 30 км в посл. час ливневой дождь 8/6 540 м
[Cb cap Ac trans Cc]
+27.4 +24.3 83 +38 +38 очень душно 1010.3 1010.0
ЮВ 6 {11} 50 км {ливн. дождь} 6/5 540 м
[Cu Sc Ac cuf Ci ing]
+30.6 +24.7 71 +43 +45 очень душно 1011.3 1011.0 +26.7 1
ЮВ 6 {11} 50 км 4/3 600 м
[Cb calv Ac trans Ci sp]
+30.8 +23.9 67 +42 +47 очень душно 1009.7 1009.4
ЮВ 4 {10} 50 км 5/3 660 м
[Cu Sc Ac trans Ci sp]
+30.3 +24.3 70 +42 +45 очень душно 1008.8 1008.5
ЮВ 4 {9} 30 км 5/4 660 м
[Cu Sc Ac trans Ci fib]
+28.8 +24.0 75 +40 +40 очень душно 1009.1 1008.8
ЮВ 3 {8} 25 км 5/5 700 м
[Cu Sc]
+28.5 +24.2 78 +40 +40 очень душно 1011.0 1010.7 +31.3
Ю 2 {6} 20 км 5/5 570 м
[Cb calv Ci ing]
+28.1 +23.4 76 +38 +38 очень душно 1010.4 1010.1
Ю 2 {4} 20 км 6/5 630 м
[Cu med, cong Ci fib]
+28.0 +23.9 78 +39 +39 очень душно 1008.4 1008.1
ЮВ 2 {5} 35 км 4/3 660 м
[Cu hum Ci fib]
+28.4 +24.0 77 +39 +40 очень душно 1009.6 1009.3
ЮВ 4 {7} 40 км 4/3 660 м
[Cu med, cong Ci]
+30.2 +24.3 71 +42 +48 очень душно 1010.3 1010.0 +27.6
ЮВ 6 {8} 40 км 8/3 700 м
[Cu med, cong Ac lent Ci]
+30.7 +25.0 72 +44 +48 очень душно 1009.1 1008.8
ЮВ 6 {10} 40 км 5/4 600 м
[Cu hum Ci]
+30.3 +24.6 72 +43 +44 очень душно 1007.7 1007.4
нст 2 {10} 30 км 5/4 600 м
[Cu med, cong Ac trans Ci sp]
+28.6 +25.1 81 +41 +41 очень душно 1008.6 1008.3
ЮВ 4 {9} 20 км 6/6 480 м
[Cb calv]
+28.4 +25.3 83 +41 +41 очень душно 1010.2 1009.9 +31.4
ЮВ 2 {6} 20 км 3/3 630 м
[Cu Sc Ci fib]
+28.0 +24.5 81 +39 +39 очень душно 1010.1 1009.8
ЮВ 3 {5} 20 км {ливн. дождь} 4/3 480 м
[Cu Sc Ci sp]
+28.1 +24.8 82 +40 +40 очень душно 1008.3 1008.0
нст 1 {5} 50 км 9/3 500 м
[Cb calv Ci sp]
+28.3 +25.0 82 +41 +41 очень душно 1009.6 1009.3
ЮВ 4 {8} 50 км 9/1 600 м
[Cb cap Ac lent Ci fib]
+30.8 +26.2 77 +47 +51 очень душно 1010.8 1010.5 +27.3 0.0
ЮВ 4 {9} 45 км 9/3 600 м
[Cb calv Ci fib]
+31.1 +25.1 70 +45 +51 очень душно 1008.9 1008.6
нст 4 {11} 45 км 9/1 660 м
[Cu med, cong Ci fib]
+30.6 +25.1 73 +44 +47 очень душно 1007.0 1006.7
ЮВ 4 {9} 30 км 9/1 630 м
[Cu med, cong Ci fib]
+29.1 +25.0 79 +42 +42 очень душно 1008.3 1008.0
Местоположение метеостанции Сейшелы (Сейшелы): широта -4.67 долгота 55.52 высота над уровнем моря 3 м.
В архиве по умолчанию представлена погода на Сейшелах за последнюю неделю. Архивные данные за месяц целиком и за предыдущие месяцы, начиная с января 2011 года, Вы можете получить, выбрав интересующий диапазон дат из раскрывающегося списка и нажав кнопку "Найти!".
*Определитесь, кто Вы:
Внимание! Время в таблицах - всемирное. Для получения местного времени необходимо прибавить поправку, которая равна 4 ч.
Некоторые строки с данными для отдельных станций могут быть выделены курсивом. Это означает, что фактические данные отсутствуют по различным причинам, а приведенные значения являются расчетными модельными данными для данного пункта наблюдений.
Смотрите также архив погоды в соседних городах и на ближайших метеорологических станциях:
Партнеры нашего сайта:      
Пояснения к столбцам:
  • Ветер - указаны скорость ветра в м/с - средняя за 10 мин, порывы в срок и между сроками (в фигурных скобках) и направление, откуда дует ветер: С - северный,
  • СВ - северо-восточный, В - восточный, ЮВ - юго-восточный, Ю - южный, ЮЗ - юго-западный, З - западный, СЗ - северо-западный.
  • Видимость - горизонтальная дальность видимости в метрах или километрах. При видимости от 1 до 10 км при отсутствии осадков обычно наблюдается дымка, при ухудшении видимости до 1 км и менее - туман. В сухую погоду видимость может ухудшаться дымом, пылью или мглою.
  • Явления - указаны атмосферные явления, наблюдавшиеся в срок или в последний час перед сроком; фигурными скобками обозначены явления, наблюдавшиеся между сроками (за 1-3 часа до срока); квадратными скобками обозначены град или гололедные отложения с указанием их диаметра в мм.
  • Облачность - указаны через наклонную черту общая и нижняя облачность в баллах и высота нижней границы облаков в метрах; квадратными скобками обозначены формы облаков: Ci - перистые, Cs - перисто-слоистые, Cc - перисто-кучевые, Ac - высококучевые, As - высокослоистые, Sc - слоисто-кучевые, Ns - слоисто-дождевые, Cu - кучевые, Cb - кучево-дождевые. Подробнее классификацию облаков см. в Атласе облаков (PDF).
  • T - Температура воздуха - температура, измеренная на высоте 2 м над землей.
  • Td - Температура точки росы - температура, при понижении до которой содержащийся в воздухе водяной пар достигнет насыщения.
  • f - Относительная влажность воздуха - влажноcть воздуха, измеренная на высоте 2 м над землей.
  • Te - Эффективная температура - температура, которую ощущает одетый по сезону человек в тени. Характеристика душности погоды. При расчете учитывается влияние влажности воздуха и скорости ветра на теплоощущения человека.
  • Tes - Эффективная температура на солнце - температура, которую ощущает человек, с поправкой на солнечный нагрев. Характеристика знойности погоды. Зависит от высоты солнца над горизонтом, облачности и скорости ветра. Ночью, в пасмурную погоду, а также при ветре 12 м/с и более поправка равна нулю.
  • P - Атмосферное давление - приведенное к уровню моря атмосферное давление.
  • Po - Атмосферное давление - измеренное на уровне метеостанции атмосферное давление.
  • Tmin - Минимальная температура - минимум температуры воздуха на высоте 2 м над землей.
  • Tmax - Максимальная температура - максимум температуры воздуха на высоте 2 м над землей.
  • R - Количество осадков - Количество выпавших осадков за период времени, мм. При наведении курсора мыши на число - период времени, за который выпало указанное количество осадков.
  • R24 - Количество осадков - Количество выпавших осадков за 24 часа, мм.
  • S - Снежный покров - Высота снежного покрова, см. При наведении курсора мыши на число - состояние снежного покрова и степень покрытия местности в баллах.